Hourly Data Report for September 05, 2007

PETERBOROUGH AWOS
ONTARIO

44°14'00.000" N
78°22'00.000" W
191.40 m
6166420

Download Data

Hourly Data (September 2007)
Hourly Data Report for September 5, 2007
TIME
LST
Temp Definition
°C
Dew Point Definition
°C
Rel Hum Definition
%
Precip. Amount Definition
mm

Wind Dir Definition
10's deg

Wind Spd Definition
km/h
Visibility Definition
km
Stn Press Definition
kPa
Hmdx Definition


Wind Chill Definition


Weather Definition


00:00 14.0 13.8 99     0 15.0 99.66      
01:00 13.2 13.2 100   13 4 12.9 99.60      
02:00 14.1 13.8 98     0 15.0 99.65      
03:00 14.4 13.6 95     0 15.0 99.67      
04:00 14.4 13.1 92   4 7 15.0 99.70     Rain
05:00 14.0 13.0 94   5 9 15.0 99.75      
06:00 13.7 12.0 89   6 7 15.0 99.79      
07:00 14.0 11.2 83   5 7 15.0 99.83      
08:00 14.2 11.1 82   5 7 15.0 99.86     Rain
09:00 15.6 12.0 79   7 6 15.0 99.87      
10:00 17.5 12.0 70   11 17 15.0 99.86      
11:00 18.3 13.0 71   11 17 15.0 99.86      
12:00 19.4 13.9 70   15 19 15.0 99.82      
13:00 19.8 13.2 66   14 15 15.0 99.80      
14:00 19.8 13.4 67   14 19 15.0 99.76      
15:00 20.9 11.9 56   13 20 15.0 99.68      
16:00 21.2 11.6 54   12 13 15.0 99.65      
17:00 20.5 11.2 55   13 11 15.0 99.67      
18:00 19.8 10.5 55   14 7 15.0 99.65      
19:00 14.7 12.2 85   15 7 15.0 99.64      
20:00 14.2 12.3 88     0 15.0 99.68      
21:00 14.3 12.4 88     0 15.0 99.71      
22:00 13.4 12.5 94     0 15.0 99.68      
23:00 13.9 12.5 91   25 6 15.0 99.66      

Notes on Data Quality.

Legend

  • E = Estimated
  • M = Missing
  • NA = Not Available*
  • [empty] = Indicates an unobserved value
Date modified: